IRIDIUM 53

Last updated on Wed Nov 29 2017 00:19:02 GMT+0000 (Coordinated Universal Time)

1 25173U 98010E 17332.37360348 .00000162 00000-0 50637-4 0 9990 2 25173 86.3953 281.7141 0002157 82.9810 277.1631 14.34218924 35307
UTC large
Height (km)
Speed (km/s)
/
Latitude / Longitude
Inclination (degrees)
Orbital Period (minutes)
Azimuth
Elevation
Range (km)
Doppler Factor

Next 0 passes for location: London (51.5072 / 0.1276)

Sorry there are no passes over London.